DELTA 1 DEB, 3127

Orbit data source: Space-Track

DELTA 1 DEB, 3127 is space debris in LEO originally from a launch on Thu, 11 Jan 1968 UTC launched from the Air Force Western Test Range (AFWTR). Debris objects in space refer to the collection of defunct objects orbiting the Earth. Examples of debris include non-operational satellites, rocket bodies, and fragments generated from explosions, collisions, or faulty payload assembly.

Loading next visibility...
DELTA 1 DEB details
Identifier
3127, 1968-002D
Orbit
LEO
Last TLE update17 hours ago
Origin
Flag of USGSFC (US)
ManufacturerUnknown
MissionSpacecraft
Bus & MotorUnknown
MassUnknown
Launch date (UTC)
1968-01-11 (57 years ago)
Launch vehicleUnknown
Launch site
Air Force Western Test Range (AFWTR)
Object type
Payload
Rocket body
Debris
Shape & HBRUnknown
Radar Cross SectionSmall (<0.1 m²)

Expand to show TLE details & history

TLE from 17 hours ago
0 DELTA 1 DEB
1 03127U 68002D   24355.79325387 -.00000015  00000-0  18605-3 0  9992
2 03127 105.3170 295.4618 0320754 138.7757 283.7458 12.84850480669172
Epoch: 2024-12-20T19:02Z
Definitive object data (Epoch: 2024-12-20T19:02:17.134Z)
Latitude55.79283°
Longitude-103.59658°
Altitude1,279.818 km
Speed7.245 km/s
True Right ascension18h 07m 18s
True Declination55° 38' 37"
Sunlit
Object was in daylight at TLE epoch
Visualization TLE readout
Latitude68.63703°
Longitude145.1606°
Altitude1,122.753 km
Speed7.397 km/s
Apparent Right ascension23h 37m 43s
Apparent Declination52° 48' 08"
Sunlit
Object is in daylight
Visualization observer readout
Local Sidereal Time11:06:57
Azimuth355.354° N
Elevation2.957°
Doppler factor1
Orbital elements
Apogee altitude1,566.684 km
Perigee altitude1,072.857 km
Semi-major axis7,697.907 km
Eccentricity0.0320754
Inclination105.317°
RAAN295.4618°
Arg. of periapsis138.7757°
True anomaly280.14355°
Mean anomaly283.7458°
Eccentric anomaly281.94783°
Mean motion3.21354 °/min
BSTAR0.00018605
Orbital period112.03 mins
Loading maneuver chart data...
Loading historical data...
Loading historical data...
Loading historical data...
Loading historical data...
Loading historical data...
Loading historical data...
Loading historical data...

DELTA 1 DEB Visibility forecast

Observer location: undefined°, undefined

Span
Click to sort rows by Start time (UTC) header in descending order
Start Az.
Max El. time (UTC)
Max El. Az.
Max El.
End time (UTC)
End Az.
4 mins2024-12-21 17:25:13.361Z58.508° ENE2024-12-21 17:27:13.361Z42.126° NE12.154°2024-12-21 17:29:13.361Z25.441° NE
13 mins2024-12-21 19:09:13.361Z133.108° SE2024-12-21 19:15:13.361Z66.295° ENE39.68°2024-12-21 19:22:13.361Z347.09° N
12 mins2024-12-21 20:59:13.361Z201.323° SSW2024-12-21 21:05:13.361Z258.042° W27.847°2024-12-21 21:11:13.361Z315.228° NNW
10 mins2024-12-22 08:44:13.361Z42.175° NE2024-12-22 08:49:13.361Z108.755° ESE32.725°2024-12-22 08:54:13.361Z170.26° S
10 mins2024-12-22 10:34:13.361Z359.338° N2024-12-22 10:38:13.361Z311.941° NW29.61°2024-12-22 10:44:13.361Z241.139° WSW
|